Home > Weather > Hudson > Past weeks

Flag for USA Past Weather in Hudson, Wisconsin, USA — Yesterday and Last 2 Weeks

Now
71 °F

Thundershowers. Partly sunny.


Feels Like: 72 °F
Forecast: 65 / 83 °F
Wind: 5 mph from Northeast

Location: St. Paul Downtown Holman Field

Current Time: Jul 27, 2016 at 4:13:04 PM

Latest Report: Jul 27, 2016 at 2:53 PM


Visibility: 10 mi

Pressure: 29.90 "Hg

Humidity: 78%

Dew Point: 64 °F

Location of HudsonLocation

Past Weather in Hudson — Graph

°F

Hudson Temperature Yesterday

Maximum temperature yesterday: 89 °F (at 2:53 PM)
Minimum temperature yesterday: 68 °F (at 4:53 AM)
Average temperature yesterday: 79 °F

High & Low Weather Summary for the Past Weeks

 TemperatureHumidityPressure
High95 °F (Jul 22, 2:53 PM)97% (Jul 23, 12:53 PM)30.18 "Hg (Jul 23, 12:53 PM)
Low60 °F (Jul 16, 4:53 AM)25% (Jul 22, 2:53 PM)29.69 "Hg (Jul 13, 4:53 PM)
Average76 °F69%29.94 "Hg
* Reported Jul 12 2:53 PM — Jul 27 2:53 PM, Hudson, Weather by CustomWeather, © 2016

Note: Actual official high and low records may vary slightly from our data, if they occured in-between our weather recording intervals... More about our weather records

Advertising

Hudson Weather History for the Previous 24 Hours

Scroll right to see more
 ConditionsComfort  
Time TempWeatherWind HumidityBarometerVisibility
2:53 PM
Wed, Jul 27
71 °FThundershowers. Partly sunny.5 mph78%29.90 "Hg10 mi
2:04 PM76 °FStrong thunderstorms. Partly sunny.14 mph82%29.93 "Hg2 mi
1:53 PM77 °FThundershowers. Broken clouds.8 mph79%29.90 "Hg10 mi
12:53 PM78 °FThunderstorms. Cloudy.8 mph74%29.94 "Hg8 mi
11:53 AM78 °FSunny.6 mph74%29.93 "Hg10 mi
10:53 AM78 °FScattered clouds.7 mph74%29.93 "Hg10 mi
9:53 AM76 °FSunny.7 mph80%29.94 "Hg10 mi
8:53 AM75 °FScattered clouds.6 mph82%29.95 "Hg10 mi
7:53 AM74 °FPassing clouds.3 mph88%29.96 "Hg10 mi
6:53 AM74 °FPassing clouds.3 mph88%29.94 "Hg10 mi
5:53 AM76 °FClear.3 mph80%29.93 "Hg10 mi
4:53 AM77 °FPassing clouds.6 mph77%29.93 "Hg10 mi
3:53 AM77 °FPassing clouds.3 mph74%29.94 "Hg10 mi
2:53 AM77 °FClear.3 mph74%29.93 "Hg10 mi
1:53 AM76 °FClear.No wind80%29.94 "Hg10 mi
12:53 AM78 °FClear.No wind76%29.96 "Hg10 mi
11:53 PM
Tue, Jul 26
80 °FClear.No wind67%29.97 "Hg10 mi
10:53 PM81 °FClear.8 mph65%29.96 "Hg10 mi
9:53 PM80 °FClear.5 mph69%29.95 "Hg10 mi
8:53 PM81 °FSunny.3 mph62%29.93 "Hg10 mi
7:53 PM83 °FSunny.8 mph61%29.93 "Hg10 mi
6:53 PM85 °FSunny.13 mph53%29.93 "Hg10 mi
5:53 PM87 °FSunny.20 mph48%29.94 "Hg10 mi
4:53 PM88 °FSunny.18 mph46%29.95 "Hg10 mi
Weather by CustomWeather, © 2016

See weather overviewHow to use our weather pages